Вернуться в каталог

STARLINK-34610

АктивенСвязьVLEO
NORAD 65034·PAYLOAD·🇺🇸 United States

Запущен Jul 30, 2025 с Cape Canaveral Space Force Station

Loading…

Ближайшие Пролёты (ближайшие 24 часа)

TLE

СвежийSource: CelesTrak SupGP

Эпоха: Sep 14, 2026, 22:58 UTC

1 65034C 25161V   26257.95743056 -.00049490  00000+0 -14624-2 0  2577
2 65034  53.1570 133.3879 0001447  85.7197 191.3666 15.34409877    19

Отслеживайте STARLINK-34610 в реальном времени с AllMySat

Download on the App Store